Regional Weather Roundup
Issued by NWS Northern Indiana

Home | Current Version | Previous Version | Text Only | Print | Product List | Glossary Off
Versions: 1 2 3 4 5 6 7 8 9 10 11 12 13 14 15 16 17 18 19 20 21 22 23 24 25 26 27 28 29 30 31 32 33 34 35 36 37 38 39 40 41 42 43 44 45 46 47 48 49 50

000
ASUS43 KIWX 242310
RWRIWX

KIWX WEATHER ROUNDUP
NATIONAL WEATHER SERVICE NORTHERN INDIANA
600 PM EST SAT FEB 24 2018

NOTE: "FAIR" INDICATES FEW OR NO CLOUDS BELOW 12,000 FEET WITH NO
SIGNIFICANT WEATHER AND/OR OBSTRUCTIONS TO VISIBILITY.

* THESE STATIONS ARE NOT UNDER NWS QUALITY CONTROL. THEY ALSO MAY NOT
  REPORT WEATHER SUCH AS PRECIPITATION OR FOG.

INZ001>027-250000-
NORTHERN INDIANA

CITY           SKY/WX    TMP DP  RH WIND       PRES   REMARKS
GARY*          DRIZZLE   45  41  87 E14       29.85F
VALPARAISO     CLOUDY    45  41  86 E13       29.87F
MICHIGAN CITY* CLOUDY    41  37  87 SE10      29.86F
LAPORTE*       CLOUDY    41  39  93 SE14      29.89F FOG
SOUTH BEND     CLOUDY    40  36  86 E16G23    29.91F
ELKHART*       CLOUDY    39  36  87 E13       29.92F
GOSHEN         CLOUDY    40  37  89 E16       29.92F
MONTICELLO*    CLOUDY    46  45  96 E8G17     29.86F
LOGANSPORT*    CLOUDY    45  43  93 E15G21    29.88F
ROCHESTER*     CLOUDY    45  43  93 E12       29.90F
WARSAW*        CLOUDY    41  39  93 N12       29.92S
AUBURN*        CLOUDY    37  36  93 E9G25     29.96F
FORT WAYNE     CLOUDY    43  41  93 E18       29.95F
HUNTINGTON*    CLOUDY    42  40  96 E10G17    29.92F
PERU/GRISSOM   CLOUDY    46  46 100 E13       29.87F
MARION*        CLOUDY    46  46 100 E9        29.91F FOG

$$
INZ028>050-250000-
CENTRAL INDIANA

CITY           SKY/WX    TMP DP  RH WIND       PRES   REMARKS
LAFAYETTE      CLOUDY    48  47  96 E10       29.84F
KOKOMO*        CLOUDY    47  45  93 E14       29.88F
MUNCIE*        CLOUDY    51  47  86 E13       29.89F
INDIANAPOLIS   LGT RAIN  50  49  96 E12       29.85F FOG

$$
MIZ043>046-050>051-056>058-064>065-071>073-077>080-250000-
SOUTHWEST LOWER MICHIGAN

CITY           SKY/WX    TMP DP  RH WIND       PRES   REMARKS
BATTLE CREEK   CLOUDY    41  33  73 E14       29.96F
BENTON HARBOR  CLOUDY    42  35  76 E15       29.90F
COLDWATER*     CLOUDY    40  35  83 E12       29.96F
HILLSDALE*     CLOUDY    36  32  87 E13G18    29.97F
HOLLAND        MOCLDY    42  33  70 SE20      29.95R
GRAND RAPIDS   CLOUDY    39  33  79 E15G25    29.95F
KALAMAZOO      CLOUDY    42  34  73 E9G21     29.95F
STURGIS*       CLOUDY    40  36  84 SE15G22   29.94F
THREE RIVERS*  CLOUDY    41  35  79 SE14      29.95F

$$
OHZ001>008-015>018-024>025-250000-
NORTHWEST OHIO

CITY           SKY/WX    TMP DP  RH WIND       PRES   REMARKS
WAUSEON*       CLOUDY    37  37 100 E16G23    30.00F
DEFIANCE       CLOUDY    38  34  85 E14       30.00F
FINDLAY        CLOUDY    42  37  82 E13       29.99F
TOLEDO EXPRESS CLOUDY    38  32  79 E16G25    30.02F
TOLEDO METCALF CLOUDY    37  31  78 E14G22    30.04F
LIMA           CLOUDY    44  44 100 E10       29.96F

$$
AND FOR LAKE MICHIGAN COASTAL AND OPEN LAKE BUOY OBSERVATIONS

STATION/POSITION TEMP    WIND        PRES    VSBY  WAVE
                 AIR SEA DIR/SP/G                  HT/PER
                 (F)     (DEG/KT/KT) (MB)    (MI)  (FT/S)
CALUMET HARBOR    38      80/  7/ 11 1010.1F
MICHIGAN CITY     41      90/ 12/ 15   N/A
BURNS HARBOR      43     120/ 12/ 17 1011.9F
SAINT JOSEPH      42     100/  4/  9 1012.9

$$
&&



USA.gov is the U.S. government's official web portal to all federal, state and local government web resources and services.